Погода в Ивановке

Украина / Харьковская область     49°38′07″N   36°54′15″E
темп.,
°C
ветер,
м/с
пор.,
м/с
влажн.,
%
обл.,
%
осадки,
мм/ч
давл.,
гПа
погр.,
м
27 сентября, пн
пн2700:00+8сз511846 0.0 1015446
03:00+7сз6128920 0.0 1016465
06:00+6сз5119530 0.0 1017408
09:00+10ссз697778 0.0 1017690
12:00+12с6772100 0.1 1018967
15:00+13с676496 0.2 1018992
18:00+12ссз586599 0.1 1019478
21:00+9с378449 0.1 1020142
28 сентября, вт
вт2800:00+8с378728 0.0 1020182
03:00+7с359018 0.0 1021109
06:00+6с3588100 0.0 1021104
09:00+9с3583100 0.1 1022253
12:00+12ссв4567100 0.8 1022561
15:00+12св567092 1.4 1023796
18:00+10св697452 0.1 1025435
21:00+7св5108468 0.1 1027450
29 сентября, ср
ср2900:00+8св5983100 0.0 1029659
03:00+6св498420 0.0 1029326
06:00+6св5875100 0.0 1030529
09:00+8всв675918 0.0 10311205
12:00+11всв67405 0.0 10311445
15:00+13св56365 0.0 10301522
18:00+10св47460 0.0 1031144
21:00+7св48560 0.0 1033154
30 сентября, чт
чт3000:00+5всв35624 0.0 103379
03:00+4всв34662 0.0 103357
06:00+3св34705 0.0 103456
09:00+8всв45535 0.0 1035380
12:00+12в45385 0.0 10341281
15:00+13всв34345 0.0 10331484
18:00+10всв33440 0.0 103341
21:00+7в34510 0.0 103462
1 октября, пт
пт100:00+6в34560 0.0 103558
03:00+5в34600 0.0 103546
06:00+4в33640 0.0 103644
09:00+9в35490 0.0 1036332
12:00+13в44385 0.0 10361380
15:00+14в44355 0.0 10341578
18:00+11в33460 0.0 103434
21:00+8в35540 0.0 103576